Weather History for Astoria, OR

Change the Weather History Date:

Tuesday, December 11, 2012

  Actual Average Record
Temperature  
Mean Temperature 44 °F 43 °F  
Max Temperature 47 °F 49 °F 58 °F (1937)
Min Temperature 40 °F 36 °F 19 °F (1932)
Degree Days  
Heating Degree Days 21 22  
Month to date heating degree days 199 239  
Since 1 July heating degree days 1604 1652  
Cooling Degree Days 0 0  
Month to date cooling degree days 0 0  
Year to date cooling degree days 25 12  
Moisture  
Dew Point 42 °F    
Average Humidity 88    
Maximum Humidity 100    
Minimum Humidity 76    
Precipitation  
Precipitation 0.63 in 0.31 in 3.03 in (1946)
Month to date precipitation 4.89 3.72  
Year to date precipitation 81.61 61.09  
Snow  
Snow 0.00 in - - ()
Month to date snowfall  
Since 1 July snowfall 0.0  
Snow Depth 0.00 in    
Sea Level Pressure  
Sea Level Pressure 29.70 in    
Wind  
Wind Speed 8 mph (WSW)    
Max Wind Speed 20 mph    
Max Gust Speed 29 mph    
Visibility 7 miles    
Events Rain    
T = Trace of Precipitation, MM = Missing Value Source: NWS Daily Summary

Daily Weather History Graph

Daily Weather History Graph

Search for Another Location

Airport:

Trip Planner

Search our weather history database for the weather conditions in past years. The results will help you decide how hot, cold, wet, or windy it might be!

Date:

Astronomy

Dec. 11, 2012 Rise Set
Actual Time 7:48 AM PST 4:29 PM PST
Civil Twilight 7:13 AM PST 5:04 PM PST
Nautical Twilight 6:35 AM PST 5:42 PM PST
Astronomical Twilight 5:59 AM PST 6:18 PM PST
Moon 5:47 AM PST (12/11) 3:16 PM PST (12/11)
Length of Visible Light 9h 50m
Length of Day
8h 41m
Waning Crescent, 4% of the Moon is Illuminated
Dec 11
Waning Crescent
Dec 13
New
Dec 19
First Quarter
Dec 28
Full
Jan 4
Last Quarter

Hourly Weather History & Observations

Time (PST) Temp. Windchill Dew Point Humidity Pressure Visibility Wind Dir Wind Speed Gust Speed Precip Events Conditions
12:55 AM 39.9 °F - 39.9 °F 100% 30.08 in 10.0 mi Calm Calm - N/A   Overcast
1:55 AM 41.0 °F 38.0 °F 39.9 °F 96% 30.04 in 10.0 mi SSE 4.6 mph - N/A   Overcast
2:55 AM 42.1 °F 38.4 °F 41.0 °F 96% 30.01 in 10.0 mi SSE 5.8 mph - N/A   Overcast
3:55 AM 45.0 °F 39.7 °F 42.1 °F 90% 29.94 in 10.0 mi SSW 10.4 mph - N/A   Overcast
4:55 AM 46.0 °F 39.9 °F 42.1 °F 86% 29.91 in 10.0 mi SW 13.8 mph 21.9 mph 0.00 in   Overcast
5:55 AM 46.0 °F 41.9 °F 41.0 °F 83% 29.88 in 10.0 mi SW 8.1 mph - 0.00 in   Overcast
6:25 AM 46.4 °F 41.5 °F 41.0 °F 81% 29.87 in 10.0 mi SW 10.4 mph - 0.00 in Rain Light Rain
6:44 AM 46.4 °F 43.5 °F 41.0 °F 81% 29.86 in 10.0 mi SSW 5.8 mph - 0.00 in   Overcast
6:55 AM 46.0 °F 41.4 °F 39.9 °F 79% 29.85 in 10.0 mi SSW 9.2 mph - 0.00 in   Overcast
7:40 AM 46.4 °F 42.4 °F 39.2 °F 76% 29.81 in 10.0 mi South 8.1 mph - N/A   Overcast
7:48 AM 46.4 °F 41.9 °F 41.0 °F 81% 29.81 in 10.0 mi South 9.2 mph - N/A   Overcast
7:55 AM 46.0 °F 41.4 °F 41.0 °F 83% 29.80 in 10.0 mi South 9.2 mph - N/A   Overcast
8:55 AM 45.0 °F 40.1 °F 41.0 °F 86% 29.79 in 5.0 mi South 9.2 mph - 0.02 in Rain Light Rain
9:55 AM 45.0 °F 38.9 °F 42.1 °F 90% 29.75 in 6.0 mi South 12.7 mph - 0.01 in Rain Light Rain
10:47 AM 46.4 °F 40.7 °F 42.8 °F 87% 29.70 in 2.5 mi South 12.7 mph 19.6 mph 0.01 in Rain Light Rain
10:55 AM 46.0 °F 41.0 °F 44.1 °F 93% 29.70 in 5.0 mi South 10.4 mph - 0.01 in Rain Light Rain
11:10 AM 46.4 °F 41.5 °F 42.8 °F 87% 29.70 in 10.0 mi South 10.4 mph 20.7 mph 0.00 in Rain Light Rain
11:55 AM 46.9 °F - 44.1 °F 90% 29.67 in 6.0 mi South 12.7 mph 23.0 mph 0.02 in Rain Light Rain
12:55 PM 46.9 °F - 44.1 °F 90% 29.62 in 5.0 mi South 9.2 mph 24.2 mph 0.10 in Rain Rain
1:31 PM 46.4 °F 39.2 °F 44.6 °F 93% 29.59 in 10.0 mi South 18.4 mph 25.3 mph 0.05 in Rain Light Rain
1:55 PM 46.9 °F - 45.0 °F 93% 29.60 in 3.0 mi WSW 8.1 mph 19.6 mph 0.11 in Rain Light Rain
1:57 PM 46.4 °F 41.9 °F 44.6 °F 93% 29.60 in 1.8 mi WSW 9.2 mph 19.6 mph 0.00 in Rain Light Rain
2:04 PM 46.4 °F 41.5 °F 44.6 °F 93% 29.60 in 1.2 mi WNW 10.4 mph 17.3 mph 0.07 in Rain Light Rain
2:07 PM 46.4 °F 41.5 °F 44.6 °F 93% 29.60 in 2.0 mi NNW 10.4 mph 17.3 mph 0.08 in Rain Light Rain
2:14 PM 46.4 °F 41.9 °F 42.8 °F 87% 29.60 in 4.0 mi WNW 9.2 mph - 0.10 in Rain Rain
2:23 PM 46.4 °F 42.4 °F 44.6 °F 93% 29.60 in 3.0 mi West 8.1 mph - 0.13 in Rain Rain
2:32 PM 46.4 °F 45.2 °F 44.6 °F 93% 29.60 in 2.0 mi WNW 3.5 mph - 0.17 in Rain Rain
2:40 PM 46.4 °F 44.3 °F 44.6 °F 93% 29.60 in 1.8 mi West 4.6 mph - 0.20 in Rain Rain
2:45 PM 46.4 °F 45.2 °F 44.6 °F 93% 29.60 in 2.0 mi WSW 3.5 mph - 0.22 in Rain Rain
2:55 PM 46.0 °F - 45.0 °F 96% 29.60 in 2.0 mi Calm Calm - 0.25 in Rain Rain
3:22 PM 46.4 °F - 44.6 °F 93% 29.59 in 5.0 mi Calm Calm - 0.03 in Rain Light Rain
3:45 PM 46.4 °F 45.2 °F 44.6 °F 93% 29.59 in 5.0 mi WNW 3.5 mph - 0.04 in Rain Light Rain
3:52 PM 46.4 °F 42.9 °F 44.6 °F 93% 29.59 in 6.0 mi West 6.9 mph - 0.04 in Rain Light Rain
3:55 PM 46.9 °F - 45.0 °F 93% 29.59 in 9.0 mi West 6.9 mph - 0.04 in   Overcast
3:59 PM 46.4 °F 43.5 °F 44.6 °F 93% 29.59 in 10.0 mi West 5.8 mph - N/A   Overcast
4:55 PM 46.0 °F 43.9 °F 43.0 °F 89% 29.60 in 10.0 mi West 4.6 mph - 0.01 in   Overcast
5:38 PM 44.6 °F 40.2 °F 42.8 °F 93% 29.61 in 9.0 mi West 8.1 mph - 0.01 in Rain Light Rain
5:45 PM 44.6 °F 40.2 °F 42.8 °F 93% 29.61 in 10.0 mi West 8.1 mph - 0.01 in Rain Light Rain
5:55 PM 45.0 °F 38.5 °F 42.1 °F 90% 29.62 in 10.0 mi WNW 13.8 mph 19.6 mph 0.01 in   Overcast
6:48 PM 44.6 °F 42.2 °F 42.8 °F 93% 29.62 in 10.0 mi NW 4.6 mph - 0.01 in   Mostly Cloudy
6:55 PM 44.1 °F 41.5 °F 42.1 °F 93% 29.62 in 10.0 mi NW 4.6 mph - 0.01 in   Mostly Cloudy
7:40 PM 44.6 °F 38.8 °F 39.2 °F 81% 29.63 in 10.0 mi WNW 11.5 mph - 0.01 in Rain Light Rain
7:55 PM 43.0 °F 38.8 °F 39.9 °F 89% 29.63 in 10.0 mi West 6.9 mph - 0.01 in   Overcast
8:55 PM 43.0 °F 41.3 °F 39.9 °F 89% 29.64 in 10.0 mi SW 3.5 mph - 0.00 in   Overcast
9:55 PM 43.0 °F 37.7 °F 39.0 °F 86% 29.65 in 10.0 mi West 9.2 mph - 0.00 in   Overcast
10:46 PM 42.8 °F 38.6 °F 37.4 °F 81% 29.67 in 4.0 mi NNW 6.9 mph 16.1 mph 0.02 in Rain Rain
10:55 PM 43.0 °F 40.3 °F 39.0 °F 86% 29.67 in 10.0 mi West 4.6 mph - 0.03 in Rain Light Rain
11:02 PM 42.8 °F 40.1 °F 39.2 °F 87% 29.67 in 10.0 mi West 4.6 mph - 0.00 in   Overcast
11:55 PM 41.0 °F 39.0 °F 37.9 °F 89% 29.68 in 10.0 mi SW 3.5 mph - 0.00 in   Clear